QPF
0.03 0.05 0.07 0.07 0.06 0.03 0.01 0.01 0.01 0.01 0.01 0.01 0.01 0.01 0.02 0.02 0.02 0.02 0.03 0.05 0.04 0.05 0.10 0.11 0.13 0.12 0.07 0.06 0.07 0.08 0.06 0.05 0.05 0.06 0.06 0.06 0.07 0.05 0.06 0.08 0.07 0.07 0.08 0.08 0.09 0.11 0.11 0.13 0.11
0.03 0.04 0.03 0.02 0.03 0.03 0.02 0.01 0.01 0.01 0.01 0.01 0.00 0.00 0.00 0.01 0.02 0.02 0.03 0.04 0.02 0.03 0.06 0.07 0.10 0.09 0.07 0.05 0.06 0.06 0.06 0.06 0.07 0.10 0.08 0.07 0.11 0.07 0.06 0.06 0.08 0.09 0.09 0.09 0.10 0.09 0.09 0.11 0.11
0.05 0.07 0.05 0.03 0.02 0.01 0.01 0.01 0.01 0.01 0.01 0.00 0.01 0.00 0.00 0.01 0.01 0.01 0.03 0.03 0.02 0.02 0.05 0.09 0.12 0.09 0.07 0.07 0.08 0.08 0.08 0.10 0.15 0.13 0.10 0.10 0.14 0.09 0.07 0.07 0.09 0.10 0.08 0.07 0.09 0.08 0.09 0.10 0.11
0.03 0.05 0.04 0.03 0.01 0.01 0.01 0.01 0.02 0.01 0.01 0.00 0.00 0.00 0.01 0.01 0.01 0.01 0.03 0.02 0.02 0.03 0.04 0.09 0.13 0.08 0.07 0.07 0.07 0.07 0.08 0.11 0.16 0.16 0.14 0.13 0.13 0.09 0.08 0.09 0.11 0.11 0.09 0.08 0.09 0.10 0.09 0.10 0.11
0.03 0.02 0.02 0.01 0.01 0.01 0.01 0.01 0.01 0.01 0.01 0.00 0.00 0.00 0.01 0.03 0.02 0.02 0.02 0.02 0.02 0.03 0.05 0.07 0.11 0.10 0.07 0.07 0.08 0.08 0.10 0.12 0.15 0.15 0.12 0.10 0.09 0.08 0.07 0.09 0.10 0.10 0.10 0.13 0.13 0.11 0.09 0.11 0.14
0.03 0.03 0.02 0.01 0.01 0.02 0.01 0.01 0.01 0.01 0.01 0.00 0.00 0.00 0.02 0.05 0.05 0.04 0.03 0.03 0.01 0.02 0.05 0.07 0.11 0.12 0.10 0.08 0.09 0.10 0.12 0.12 0.13 0.12 0.09 0.07 0.08 0.08 0.07 0.07 0.09 0.10 0.10 0.12 0.13 0.13 0.13 0.14 0.18
0.05 0.04 0.03 0.03 0.01 0.02 0.02 0.01 0.01 0.01 0.01 0.00 0.00 0.01 0.02 0.05 0.07 0.05 0.04 0.03 0.01 0.03 0.04 0.08 0.09 0.12 0.14 0.13 0.12 0.12 0.16 0.16 0.14 0.12 0.11 0.10 0.08 0.07 0.08 0.08 0.10 0.12 0.12 0.13 0.14 0.15 0.15 0.15 0.17
0.04 0.07 0.06 0.04 0.03 0.02 0.01 0.01 0.00 0.01 0.01 0.00 0.01 0.03 0.04 0.04 0.05 0.03 0.03 0.03 0.02 0.02 0.02 0.05 0.06 0.09 0.10 0.11 0.14 0.14 0.16 0.18 0.17 0.14 0.12 0.13 0.10 0.07 0.09 0.11 0.12 0.13 0.14 0.14 0.16 0.18 0.17 0.17 0.17
0.07 0.06 0.02 0.01 0.01 0.02 0.01 0.00 0.01 0.01 0.01 0.01 0.01 0.03 0.04 0.04 0.03 0.01 0.02 0.02 0.03 0.03 0.02 0.03 0.04 0.04 0.05 0.05 0.09 0.16 0.18 0.18 0.15 0.11 0.09 0.11 0.12 0.11 0.11 0.11 0.13 0.16 0.17 0.19 0.22 0.29 0.26 0.22 0.18
0.03 0.04 0.02 0.01 0.01 0.01 0.02 0.01 0.01 0.01 0.01 0.01 0.01 0.02 0.03 0.02 0.02 0.02 0.02 0.02 0.02 0.02 0.03 0.03 0.03 0.03 0.03 0.04 0.05 0.09 0.10 0.10 0.07 0.04 0.04 0.05 0.08 0.10 0.09 0.11 0.14 0.17 0.19 0.21 0.27 0.26 0.21 0.17 0.13
0.02 0.02 0.02 0.01 0.01 0.01 0.02 0.01 0.01 0.01 0.01 0.01 0.01 0.02 0.02 0.02 0.02 0.03 0.04 0.03 0.03 0.03 0.04 0.03 0.03 0.02 0.04 0.05 0.05 0.05 0.07 0.05 0.04 0.03 0.02 0.02 0.04 0.06 0.07 0.09 0.12 0.14 0.16 0.13 0.14 0.14 0.12 0.14 0.15
0.01 0.01 0.01 0.01 0.01 0.01 0.01 0.01 0.01 0.01 0.00 0.01 0.02 0.02 0.02 0.02 0.02 0.04 0.06 0.06 0.05 0.05 0.04 0.02 0.02 0.02 0.03 0.04 0.04 0.05 0.05 0.05 0.03 0.03 0.02 0.02 0.02 0.04 0.04 0.07 0.09 0.11 0.11 0.08 0.09 0.08 0.08 0.11 0.14
0.01 0.01 0.01 0.01 0.01 0.01 0.01 0.01 0.01 0.01 0.01 0.01 0.01 0.01 0.02 0.01 0.01 0.02 0.03 0.04 0.03 0.03 0.02 0.02 0.02 0.01 0.02 0.03 0.04 0.05 0.04 0.03 0.03 0.03 0.03 0.02 0.02 0.03 0.04 0.05 0.07 0.08 0.06 0.05 0.05 0.04 0.05 0.05 0.10
0.01 0.01 0.01 0.01 0.01 0.02 0.01 0.01 0.03 0.02 0.01 0.01 0.01 0.01 0.02 0.02 0.02 0.02 0.02 0.02 0.02 0.02 0.02 0.02 0.02 0.02 0.02 0.03 0.06 0.07 0.05 0.04 0.02 0.02 0.02 0.03 0.02 0.03 0.05 0.04 0.07 0.08 0.05 0.04 0.04 0.03 0.02 0.03 0.05
0.01 0.01 0.02 0.02 0.02 0.03 0.03 0.05 0.03 0.01 0.01 0.01 0.01 0.01 0.03 0.04 0.03 0.03 0.03 0.03 0.03 0.03 0.03 0.03 0.03 0.02 0.02 0.02 0.03 0.04 0.05 0.04 0.02 0.02 0.03 0.03 0.03 0.05 0.07 0.06 0.07 0.10 0.07 0.06 0.05 0.05 0.03 0.04 0.05
0.01 0.02 0.03 0.02 0.01 0.02 0.03 0.03 0.01 0.01 0.01 0.01 0.01 0.01 0.02 0.04 0.05 0.06 0.05 0.04 0.04 0.04 0.04 0.04 0.03 0.02 0.02 0.01 0.01 0.02 0.02 0.03 0.03 0.04 0.04 0.04 0.04 0.04 0.05 0.04 0.05 0.07 0.08 0.07 0.06 0.07 0.08 0.07 0.06
0.01 0.01 0.02 0.03 0.02 0.02 0.02 0.01 0.01 0.01 0.01 0.01 0.01 0.01 0.02 0.02 0.03 0.04 0.04 0.03 0.04 0.05 0.05 0.04 0.02 0.01 0.01 0.01 0.01 0.01 0.02 0.02 0.03 0.03 0.03 0.04 0.04 0.04 0.05 0.05 0.04 0.05 0.04 0.04 0.04 0.05 0.08 0.09 0.05
0.00 0.01 0.01 0.02 0.01 0.02 0.01 0.01 0.01 0.01 0.01 0.01 0.01 0.01 0.01 0.02 0.03 0.03 0.03 0.03 0.04 0.03 0.04 0.03 0.02 0.02 0.02 0.01 0.01 0.01 0.01 0.01 0.01 0.02 0.02 0.02 0.03 0.06 0.08 0.07 0.04 0.03 0.03 0.02 0.02 0.02 0.03 0.04 0.04
0.00 0.00 0.01 0.00 0.01 0.01 0.02 0.02 0.01 0.01 0.01 0.02 0.02 0.02 0.01 0.02 0.03 0.03 0.03 0.04 0.04 0.04 0.04 0.03 0.02 0.02 0.02 0.01 0.01 0.01 0.01 0.01 0.01 0.02 0.01 0.01 0.03 0.06 0.06 0.04 0.02 0.02 0.02 0.02 0.02 0.01 0.01 0.01 0.01
0.01 0.01 0.01 0.00 0.00 0.01 0.02 0.02 0.01 0.01 0.02 0.02 0.02 0.01 0.01 0.02 0.02 0.02 0.01 0.02 0.03 0.04 0.03 0.03 0.02 0.02 0.03 0.03 0.02 0.02 0.01 0.01 0.01 0.02 0.01 0.01 0.02 0.03 0.04 0.03 0.01 0.01 0.01 0.02 0.02 0.02 0.01 0.01 0.01
0.01 0.01 0.00 0.00 0.00 0.00 0.01 0.01 0.01 0.01 0.01 0.01 0.01 0.01 0.01 0.02 0.02 0.02 0.01 0.01 0.02 0.03 0.03 0.03 0.03 0.02 0.03 0.03 0.03 0.02 0.01 0.01 0.01 0.01 0.01 0.01 0.02 0.03 0.03 0.02 0.02 0.02 0.03 0.03 0.03 0.02 0.01 0.02 0.02
0.01 0.01 0.01 0.00 0.01 0.01 0.01 0.01 0.01 0.00 0.01 0.01 0.01 0.01 0.01 0.01 0.01 0.01 0.01 0.02 0.03 0.02 0.02 0.02 0.03 0.04 0.04 0.02 0.03 0.02 0.01 0.01 0.01 0.01 0.02 0.03 0.03 0.02 0.03 0.02 0.02 0.03 0.05 0.05 0.04 0.03 0.02 0.03 0.03
0.01 0.00 0.01 0.01 0.01 0.01 0.01 0.01 0.00 0.01 0.01 0.01 0.01 0.01 0.01 0.01 0.01 0.01 0.01 0.02 0.02 0.01 0.01 0.02 0.02 0.05 0.03 0.03 0.03 0.03 0.02 0.02 0.01 0.02 0.03 0.03 0.03 0.03 0.04 0.04 0.04 0.05 0.05 0.05 0.05 0.04 0.03 0.03 0.03
0.01 0.01 0.01 0.02 0.02 0.01 0.01 0.01 0.01 0.01 0.01 0.01 0.01 0.01 0.01 0.01 0.01 0.01 0.01 0.01 0.01 0.01 0.02 0.01 0.01 0.02 0.03 0.03 0.03 0.03 0.03 0.02 0.02 0.03 0.03 0.03 0.03 0.04 0.05 0.06 0.07 0.08 0.08 0.08 0.09 0.08 0.05 0.04 0.04
0.01 0.01 0.01 0.01 0.01 0.00 0.01 0.01 0.01 0.01 0.01 0.01 0.01 0.03 0.03 0.02 0.01 0.01 0.01 0.01 0.01 0.01 0.01 0.01 0.01 0.01 0.02 0.02 0.03 0.03 0.03 0.04 0.04 0.04 0.04 0.03 0.03 0.04 0.04 0.05 0.08 0.08 0.10 0.11 0.10 0.09 0.07 0.05 0.04
0.01 0.01 0.01 0.00 0.00 0.00 0.00 0.01 0.01 0.01 0.01 0.00 0.01 0.01 0.02 0.01 0.01 0.01 0.00 0.01 0.01 0.01 0.04 0.05 0.02 0.01 0.02 0.03 0.02 0.03 0.05 0.05 0.05 0.05 0.05 0.04 0.03 0.03 0.03 0.03 0.06 0.06 0.08 0.07 0.07 0.07 0.07 0.06 0.04
0.00 0.01 0.01 0.00 0.00 0.00 0.00 0.01 0.01 0.00 0.00 0.00 0.01 0.01 0.01 0.01 0.00 0.01 0.00 0.00 0.01 0.01 0.03 0.08 0.04 0.04 0.03 0.03 0.02 0.02 0.04 0.04 0.04 0.05 0.06 0.05 0.03 0.03 0.03 0.04 0.06 0.04 0.04 0.05 0.06 0.05 0.04 0.04 0.05
0.01 0.00 0.00 0.00 0.00 0.00 0.01 0.01 0.01 0.00 0.00 0.01 0.01 0.01 0.01 0.01 0.00 0.00 0.00 0.00 0.01 0.01 0.01 0.03 0.03 0.05 0.04 0.02 0.02 0.03 0.04 0.03 0.04 0.05 0.06 0.05 0.04 0.03 0.05 0.07 0.06 0.03 0.03 0.03 0.04 0.05 0.05 0.04 0.04
0.00 0.00 0.00 0.00 0.00 0.00 0.00 0.00 0.00 0.00 0.00 0.01 0.01 0.01 0.01 0.01 0.01 0.00 0.00 0.00 0.01 0.01 0.01 0.01 0.02 0.03 0.03 0.02 0.03 0.04 0.06 0.06 0.05 0.05 0.06 0.06 0.05 0.03 0.04 0.05 0.03 0.02 0.01 0.02 0.03 0.04 0.04 0.03 0.03
0.00 0.00 0.00 0.00 0.01 0.00 0.00 0.00 0.00 0.00 0.00 0.01 0.02 0.01 0.01 0.01 0.01 0.01 0.01 0.01 0.01 0.01 0.01 0.01 0.02 0.03 0.02 0.03 0.05 0.07 0.06 0.06 0.06 0.06 0.04 0.02 0.01 0.02 0.03 0.02 0.01 0.01 0.02 0.02 0.03 0.03 0.03 0.02 0.02
MSLP
1007.64 1008.63 1009.71 1010.74 1011.57 1012.11 1012.32 1012.24 1011.93 1011.49 1011.04 1010.65 1010.35 1010.12 1009.91 1009.61 1009.13 1008.39 1007.34 1005.97 1004.33 1002.49 1000.56 998.67 996.96 995.56 994.57 994.05 994.04 994.54 995.48 996.78 998.31 999.93 1001.52 1002.97 1004.23 1005.26 1006.09 1006.76 1007.33 1007.86 1008.41 1008.97 1009.56 1010.15 1010.71 1011.22 1011.67
1008.10 1009.23 1010.39 1011.40 1012.13 1012.51 1012.51 1012.18 1011.62 1010.96 1010.33 1009.80 1009.42 1009.17 1008.98 1008.75 1008.36 1007.71 1006.72 1005.38 1003.71 1001.76 999.66 997.54 995.57 993.89 992.66 991.98 991.90 992.43 993.51 995.03 996.84 998.76 1000.62 1002.31 1003.74 1004.89 1005.78 1006.47 1007.06 1007.60 1008.17 1008.76 1009.39 1010.01 1010.60 1011.11 1011.55
1008.75 1009.97 1011.13 1012.07 1012.67 1012.87 1012.66 1012.11 1011.34 1010.50 1009.72 1009.08 1008.64 1008.36 1008.18 1007.99 1007.66 1007.08 1006.16 1004.86 1003.18 1001.19 998.99 996.72 994.56 992.69 991.28 990.46 990.30 990.83 991.98 993.64 995.64 997.76 999.82 1001.68 1003.25 1004.49 1005.44 1006.18 1006.79 1007.37 1007.96 1008.60 1009.26 1009.92 1010.53 1011.05 1011.48
1009.51 1010.75 1011.87 1012.70 1013.14 1013.15 1012.75 1012.04 1011.13 1010.17 1009.31 1008.62 1008.13 1007.83 1007.65 1007.47 1007.18 1006.64 1005.78 1004.55 1002.92 1000.96 998.75 996.44 994.19 992.22 990.69 989.76 989.52 990.00 991.15 992.85 994.91 997.12 999.28 1001.23 1002.88 1004.18 1005.19 1005.96 1006.62 1007.24 1007.88 1008.56 1009.26 1009.95 1010.56 1011.08 1011.50
1010.27 1011.47 1012.48 1013.16 1013.43 1013.29 1012.76 1011.95 1010.98 1010.00 1009.13 1008.44 1007.96 1007.65 1007.46 1007.27 1006.99 1006.49 1005.69 1004.54 1003.02 1001.16 999.04 996.80 994.59 992.61 991.04 990.05 989.73 990.12 991.20 992.83 994.84 997.02 999.16 1001.11 1002.76 1004.09 1005.12 1005.93 1006.63 1007.29 1007.97 1008.69 1009.42 1010.11 1010.73 1011.23 1011.63
1010.90 1011.99 1012.83 1013.35 1013.46 1013.20 1012.61 1011.79 1010.86 1009.95 1009.15 1008.53 1008.08 1007.79 1007.59 1007.39 1007.09 1006.62 1005.88 1004.84 1003.47 1001.80 999.88 997.81 995.75 993.88 992.35 991.34 990.96 991.24 992.18 993.65 995.51 997.55 999.57 1001.42 1003.01 1004.30 1005.32 1006.15 1006.87 1007.56 1008.26 1008.99 1009.72 1010.40 1011.00 1011.48 1011.84
1011.24 1012.17 1012.84 1013.17 1013.16 1012.83 1012.24 1011.50 1010.70 1009.94 1009.29 1008.78 1008.42 1008.16 1007.95 1007.73 1007.43 1006.97 1006.30 1005.39 1004.22 1002.78 1001.13 999.34 997.53 995.85 994.45 993.49 993.07 993.24 994.00 995.27 996.89 998.70 1000.52 1002.20 1003.66 1004.86 1005.83 1006.63 1007.34 1008.02 1008.72 1009.43 1010.13 1010.77 1011.32 1011.76 1012.09
1011.25 1011.99 1012.47 1012.65 1012.54 1012.19 1011.67 1011.06 1010.44 1009.89 1009.44 1009.09 1008.83 1008.62 1008.42 1008.19 1007.87 1007.42 1006.83 1006.07 1005.10 1003.95 1002.61 1001.16 999.66 998.25 997.05 996.18 995.76 995.84 996.43 997.46 998.81 1000.35 1001.91 1003.37 1004.65 1005.72 1006.60 1007.33 1007.98 1008.62 1009.27 1009.92 1010.56 1011.15 1011.64 1012.03 1012.32
1010.94 1011.50 1011.80 1011.85 1011.69 1011.36 1010.94 1010.50 1010.11 1009.79 1009.55 1009.37 1009.23 1009.08 1008.89 1008.64 1008.31 1007.89 1007.37 1006.74 1005.99 1005.12 1004.12 1003.02 1001.87 1000.77 999.80 999.08 998.70 998.72 999.15 999.95 1001.04 1002.29 1003.58 1004.79 1005.87 1006.78 1007.53 1008.16 1008.73 1009.29 1009.85 1010.42 1010.98 1011.48 1011.91 1012.26 1012.52
1010.43 1010.83 1010.99 1010.95 1010.75 1010.46 1010.16 1009.91 1009.72 1009.62 1009.58 1009.57 1009.53 1009.44 1009.27 1009.02 1008.69 1008.29 1007.83 1007.34 1006.79 1006.17 1005.48 1004.73 1003.92 1003.13 1002.41 1001.86 1001.56 1001.55 1001.86 1002.47 1003.31 1004.29 1005.32 1006.30 1007.17 1007.91 1008.52 1009.04 1009.51 1009.96 1010.42 1010.89 1011.35 1011.78 1012.15 1012.46 1012.71
1009.90 1010.18 1010.23 1010.12 1009.92 1009.68 1009.49 1009.39 1009.38 1009.46 1009.58 1009.69 1009.74 1009.71 1009.56 1009.31 1008.98 1008.61 1008.22 1007.83 1007.44 1007.04 1006.61 1006.15 1005.64 1005.13 1004.66 1004.28 1004.07 1004.06 1004.29 1004.75 1005.39 1006.15 1006.95 1007.72 1008.41 1009.00 1009.49 1009.90 1010.26 1010.61 1010.97 1011.34 1011.72 1012.07 1012.40 1012.69 1012.95
1009.54 1009.72 1009.71 1009.56 1009.35 1009.16 1009.05 1009.05 1009.16 1009.35 1009.57 1009.77 1009.88 1009.89 1009.77 1009.54 1009.23 1008.89 1008.55 1008.24 1007.97 1007.73 1007.49 1007.25 1006.98 1006.70 1006.43 1006.21 1006.09 1006.12 1006.30 1006.65 1007.14 1007.73 1008.35 1008.95 1009.50 1009.97 1010.36 1010.68 1010.97 1011.24 1011.52 1011.81 1012.11 1012.42 1012.72 1013.01 1013.29
1009.46 1009.59 1009.53 1009.36 1009.15 1008.99 1008.92 1008.97 1009.12 1009.36 1009.62 1009.85 1010.00 1010.03 1009.94 1009.75 1009.48 1009.18 1008.89 1008.64 1008.44 1008.29 1008.17 1008.07 1007.96 1007.85 1007.73 1007.65 1007.62 1007.67 1007.84 1008.12 1008.51 1008.96 1009.45 1009.94 1010.39 1010.78 1011.11 1011.39 1011.63 1011.86 1012.09 1012.33 1012.59 1012.87 1013.16 1013.47 1013.78
1009.73 1009.82 1009.73 1009.54 1009.33 1009.17 1009.10 1009.14 1009.29 1009.51 1009.75 1009.98 1010.13 1010.18 1010.13 1009.99 1009.77 1009.52 1009.28 1009.07 1008.91 1008.80 1008.73 1008.70 1008.68 1008.67 1008.66 1008.67 1008.71 1008.80 1008.96 1009.20 1009.51 1009.88 1010.28 1010.69 1011.08 1011.44 1011.75 1012.03 1012.27 1012.49 1012.71 1012.94 1013.19 1013.46 1013.76 1014.09 1014.43
1010.26 1010.31 1010.21 1010.01 1009.79 1009.62 1009.52 1009.52 1009.61 1009.76 1009.95 1010.13 1010.27 1010.35 1010.35 1010.27 1010.13 1009.95 1009.75 1009.57 1009.42 1009.32 1009.26 1009.24 1009.25 1009.29 1009.35 1009.42 1009.52 1009.65 1009.81 1010.02 1010.28 1010.58 1010.92 1011.27 1011.63 1011.98 1012.30 1012.60 1012.87 1013.13 1013.37 1013.61 1013.87 1014.16 1014.47 1014.82 1015.18
1010.90 1010.92 1010.80 1010.60 1010.39 1010.20 1010.07 1010.00 1010.01 1010.07 1010.18 1010.30 1010.42 1010.51 1010.57 1010.57 1010.52 1010.42 1010.28 1010.14 1009.99 1009.87 1009.79 1009.75 1009.77 1009.83 1009.93 1010.05 1010.19 1010.35 1010.52 1010.71 1010.92 1011.17 1011.45 1011.75 1012.09 1012.44 1012.79 1013.13 1013.45 1013.75 1014.03 1014.31 1014.59 1014.89 1015.22 1015.58 1015.96
1011.48 1011.47 1011.35 1011.17 1010.97 1010.79 1010.63 1010.50 1010.42 1010.38 1010.39 1010.44 1010.53 1010.63 1010.74 1010.83 1010.88 1010.87 1010.81 1010.70 1010.56 1010.43 1010.32 1010.26 1010.27 1010.34 1010.48 1010.65 1010.83 1011.02 1011.21 1011.38 1011.55 1011.74 1011.95 1012.21 1012.51 1012.85 1013.22 1013.60 1013.97 1014.32 1014.65 1014.96 1015.27 1015.58 1015.91 1016.27 1016.65
1011.84 1011.81 1011.72 1011.60 1011.46 1011.30 1011.14 1010.97 1010.80 1010.66 1010.56 1010.52 1010.56 1010.67 1010.83 1011.00 1011.15 1011.24 1011.26 1011.20 1011.09 1010.95 1010.82 1010.75 1010.76 1010.85 1011.03 1011.25 1011.49 1011.72 1011.92 1012.08 1012.21 1012.33 1012.48 1012.67 1012.92 1013.24 1013.60 1014.00 1014.41 1014.80 1015.16 1015.50 1015.82 1016.13 1016.46 1016.81 1017.17
1011.90 1011.90 1011.88 1011.86 1011.81 1011.73 1011.59 1011.39 1011.15 1010.89 1010.67 1010.53 1010.50 1010.59 1010.78 1011.02 1011.26 1011.45 1011.56 1011.57 1011.49 1011.37 1011.25 1011.18 1011.21 1011.34 1011.56 1011.85 1012.15 1012.43 1012.66 1012.81 1012.91 1012.97 1013.04 1013.16 1013.34 1013.60 1013.94 1014.33 1014.75 1015.16 1015.54 1015.89 1016.21 1016.51 1016.81 1017.14 1017.48
1011.70 1011.76 1011.87 1012.01 1012.11 1012.14 1012.04 1011.82 1011.50 1011.11 1010.75 1010.48 1010.35 1010.39 1010.57 1010.86 1011.18 1011.47 1011.67 1011.76 1011.74 1011.66 1011.56 1011.52 1011.58 1011.76 1012.04 1012.40 1012.77 1013.11 1013.38 1013.54 1013.62 1013.63 1013.63 1013.66 1013.76 1013.96 1014.24 1014.60 1015.00 1015.41 1015.78 1016.12 1016.42 1016.70 1016.98 1017.27 1017.59
1011.32 1011.52 1011.82 1012.16 1012.45 1012.60 1012.57 1012.33 1011.90 1011.37 1010.83 1010.39 1010.12 1010.07 1010.22 1010.53 1010.92 1011.29 1011.59 1011.76 1011.82 1011.79 1011.74 1011.74 1011.84 1012.07 1012.42 1012.85 1013.30 1013.71 1014.02 1014.21 1014.28 1014.26 1014.20 1014.15 1014.18 1014.30 1014.52 1014.83 1015.20 1015.57 1015.93 1016.24 1016.52 1016.76 1017.00 1017.25 1017.54
1010.93 1011.34 1011.87 1012.45 1012.94 1013.23 1013.24 1012.96 1012.41 1011.69 1010.95 1010.30 1009.86 1009.68 1009.77 1010.07 1010.51 1010.96 1011.35 1011.62 1011.76 1011.80 1011.81 1011.85 1012.00 1012.28 1012.68 1013.17 1013.69 1014.17 1014.54 1014.76 1014.84 1014.81 1014.71 1014.62 1014.58 1014.63 1014.79 1015.05 1015.36 1015.70 1016.02 1016.30 1016.54 1016.75 1016.94 1017.15 1017.41
1010.69 1011.33 1012.13 1012.95 1013.64 1014.04 1014.08 1013.72 1013.02 1012.09 1011.10 1010.22 1009.58 1009.26 1009.26 1009.54 1010.01 1010.54 1011.02 1011.39 1011.62 1011.74 1011.80 1011.89 1012.07 1012.38 1012.82 1013.36 1013.93 1014.46 1014.89 1015.16 1015.28 1015.26 1015.16 1015.04 1014.96 1014.96 1015.07 1015.27 1015.54 1015.84 1016.12 1016.36 1016.56 1016.72 1016.87 1017.03 1017.24
1010.67 1011.57 1012.63 1013.67 1014.52 1015.00 1015.02 1014.55 1013.67 1012.51 1011.28 1010.16 1009.32 1008.84 1008.76 1009.02 1009.51 1010.11 1010.68 1011.14 1011.46 1011.66 1011.77 1011.89 1012.08 1012.40 1012.86 1013.42 1014.02 1014.60 1015.08 1015.41 1015.57 1015.59 1015.51 1015.40 1015.31 1015.28 1015.36 1015.52 1015.75 1016.00 1016.24 1016.45 1016.61 1016.72 1016.82 1016.94 1017.10
1010.90 1012.03 1013.31 1014.52 1015.47 1015.98 1015.94 1015.34 1014.28 1012.90 1011.44 1010.11 1009.09 1008.48 1008.32 1008.56 1009.07 1009.73 1010.39 1010.94 1011.34 1011.60 1011.76 1011.89 1012.09 1012.40 1012.85 1013.40 1014.02 1014.62 1015.14 1015.52 1015.74 1015.81 1015.78 1015.69 1015.62 1015.59 1015.65 1015.78 1015.98 1016.19 1016.40 1016.57 1016.69 1016.76 1016.81 1016.88 1016.99
1011.30 1012.62 1014.04 1015.35 1016.33 1016.81 1016.69 1015.96 1014.73 1013.17 1011.53 1010.04 1008.89 1008.20 1007.99 1008.22 1008.76 1009.47 1010.20 1010.82 1011.29 1011.59 1011.78 1011.92 1012.11 1012.40 1012.81 1013.35 1013.95 1014.56 1015.11 1015.54 1015.81 1015.95 1015.98 1015.94 1015.89 1015.88 1015.93 1016.04 1016.21 1016.40 1016.57 1016.70 1016.79 1016.83 1016.84 1016.85 1016.91
1011.76 1013.17 1014.65 1015.97 1016.92 1017.33 1017.10 1016.26 1014.91 1013.24 1011.51 1009.94 1008.74 1008.01 1007.79 1008.03 1008.60 1009.35 1010.12 1010.80 1011.31 1011.64 1011.85 1011.99 1012.16 1012.42 1012.80 1013.30 1013.88 1014.49 1015.05 1015.51 1015.84 1016.04 1016.12 1016.13 1016.12 1016.13 1016.18 1016.29 1016.43 1016.59 1016.73 1016.84 1016.90 1016.90 1016.88 1016.86 1016.87
1012.14 1013.55 1014.98 1016.23 1017.08 1017.38 1017.06 1016.15 1014.75 1013.06 1011.34 1009.80 1008.62 1007.93 1007.75 1008.01 1008.61 1009.38 1010.17 1010.86 1011.39 1011.73 1011.94 1012.08 1012.23 1012.46 1012.81 1013.28 1013.84 1014.44 1015.01 1015.49 1015.86 1016.10 1016.24 1016.30 1016.32 1016.35 1016.41 1016.50 1016.62 1016.76 1016.88 1016.96 1017.00 1016.99 1016.95 1016.91 1016.89
1012.31 1013.62 1014.93 1016.02 1016.73 1016.91 1016.52 1015.58 1014.22 1012.62 1011.01 1009.59 1008.54 1007.95 1007.84 1008.14 1008.75 1009.52 1010.29 1010.97 1011.48 1011.83 1012.03 1012.17 1012.32 1012.54 1012.87 1013.32 1013.86 1014.45 1015.01 1015.51 1015.91 1016.19 1016.36 1016.45 1016.50 1016.54 1016.60 1016.69 1016.80 1016.91 1017.01 1017.08 1017.11 1017.10 1017.06 1017.01 1016.99
1012.23 1013.37 1014.47 1015.36 1015.89 1015.95 1015.52 1014.62 1013.37 1011.94 1010.53 1009.33 1008.47 1008.03 1008.02 1008.37 1008.98 1009.71 1010.45 1011.08 1011.56 1011.89 1012.09 1012.24 1012.40 1012.63 1012.96 1013.41 1013.95 1014.52 1015.09 1015.59 1016.00 1016.30 1016.49 1016.61 1016.68 1016.74 1016.80 1016.88 1016.97 1017.07 1017.16 1017.23 1017.26 1017.26 1017.24 1017.21 1017.21
Thickness
5814 5812 5808 5797 5780 5764 5761 5774 5784 5784 5786 5795 5798 5792 5784 5778 5772 5769 5794 5803 5804 5803 5803 5803 5803 5803 5803 5802 5800 5800 5799 5799 5800 5800 5800 5799 5799 5799 5799 5798 5797 5796 5795 5793 5792 5791 5789 5788 5786
5816 5812 5803 5789 5768 5751 5760 5779 5782 5787 5794 5800 5798 5793 5786 5783 5790 5791 5796 5802 5804 5803 5802 5802 5802 5803 5803 5801 5800 5799 5799 5799 5799 5799 5799 5798 5799 5799 5799 5798 5797 5796 5794 5793 5793 5792 5790 5788 5786
5817 5813 5796 5781 5767 5757 5766 5783 5788 5796 5802 5800 5794 5793 5788 5785 5792 5795 5800 5803 5803 5801 5801 5801 5801 5801 5801 5800 5799 5799 5798 5798 5799 5799 5798 5797 5797 5797 5798 5798 5796 5795 5794 5793 5792 5792 5790 5789 5786
5815 5804 5793 5777 5769 5778 5783 5790 5796 5795 5799 5801 5795 5787 5791 5798 5798 5801 5804 5804 5801 5800 5800 5800 5800 5800 5800 5799 5798 5798 5798 5798 5798 5798 5798 5796 5795 5795 5796 5796 5795 5794 5793 5793 5792 5792 5791 5789 5787
5814 5797 5780 5769 5774 5786 5795 5800 5801 5794 5793 5796 5794 5784 5785 5799 5805 5805 5804 5803 5800 5799 5799 5799 5799 5799 5799 5798 5798 5798 5798 5798 5797 5796 5796 5795 5794 5794 5794 5794 5794 5793 5793 5792 5792 5792 5791 5789 5787
5802 5791 5769 5762 5775 5790 5798 5804 5801 5795 5795 5797 5793 5784 5785 5800 5802 5802 5803 5802 5800 5799 5798 5798 5799 5798 5798 5798 5797 5797 5797 5797 5796 5795 5794 5794 5794 5794 5793 5793 5793 5792 5792 5792 5792 5792 5790 5788 5786
5796 5784 5772 5773 5776 5785 5798 5807 5800 5795 5794 5797 5798 5784 5787 5796 5802 5803 5802 5801 5800 5799 5798 5797 5797 5797 5797 5797 5796 5796 5796 5795 5794 5794 5793 5794 5795 5794 5793 5792 5791 5791 5790 5791 5791 5790 5788 5786 5784
5805 5788 5778 5776 5778 5785 5803 5807 5807 5802 5798 5808 5804 5786 5784 5795 5803 5802 5801 5799 5798 5798 5797 5796 5797 5796 5796 5795 5795 5795 5795 5794 5793 5792 5792 5793 5793 5793 5791 5790 5790 5789 5789 5789 5789 5788 5786 5784 5782
5811 5783 5773 5780 5784 5792 5806 5803 5808 5813 5806 5805 5805 5801 5801 5803 5803 5799 5796 5795 5795 5795 5796 5796 5796 5796 5795 5794 5794 5793 5793 5792 5791 5790 5790 5790 5790 5789 5788 5788 5787 5787 5787 5787 5787 5785 5783 5782 5779
5803 5780 5787 5800 5802 5802 5807 5805 5806 5804 5798 5797 5799 5803 5805 5802 5799 5795 5792 5791 5791 5792 5793 5795 5795 5795 5794 5794 5793 5792 5791 5790 5789 5788 5788 5787 5787 5786 5786 5786 5785 5785 5785 5785 5783 5782 5781 5779 5777
5805 5794 5804 5810 5814 5812 5807 5806 5810 5800 5791 5796 5796 5798 5800 5798 5796 5793 5792 5791 5791 5792 5793 5794 5794 5793 5792 5791 5791 5790 5789 5788 5787 5786 5786 5785 5785 5784 5783 5783 5783 5783 5783 5782 5780 5778 5777 5776 5774
5807 5809 5814 5814 5819 5814 5809 5808 5805 5802 5802 5811 5809 5806 5801 5797 5794 5793 5792 5791 5791 5791 5791 5793 5793 5792 5791 5790 5790 5788 5787 5786 5785 5784 5784 5783 5782 5781 5780 5780 5779 5780 5780 5778 5777 5775 5773 5772 5771
5808 5811 5818 5819 5818 5816 5813 5807 5805 5805 5813 5814 5810 5805 5799 5797 5795 5795 5795 5793 5792 5791 5791 5792 5792 5791 5790 5789 5787 5786 5785 5784 5783 5783 5782 5781 5780 5779 5778 5777 5777 5776 5776 5775 5773 5772 5771 5769 5768
5813 5814 5814 5817 5817 5817 5809 5807 5804 5805 5813 5809 5805 5800 5799 5796 5795 5794 5793 5792 5791 5791 5791 5791 5791 5790 5789 5787 5786 5784 5783 5782 5782 5781 5780 5780 5779 5777 5776 5775 5774 5774 5773 5772 5770 5769 5768 5766 5765
5818 5808 5807 5811 5813 5813 5810 5797 5800 5809 5810 5804 5801 5799 5797 5796 5796 5794 5793 5793 5792 5791 5791 5790 5790 5789 5788 5786 5785 5784 5783 5781 5780 5780 5779 5778 5777 5776 5775 5773 5772 5771 5771 5769 5768 5767 5765 5764 5762
5809 5796 5787 5803 5809 5811 5800 5781 5800 5809 5806 5799 5799 5798 5795 5795 5795 5795 5795 5794 5793 5792 5790 5790 5791 5788 5787 5786 5785 5783 5782 5780 5779 5778 5778 5777 5776 5775 5773 5771 5770 5769 5768 5767 5765 5763 5761 5759 5758
5788 5778 5781 5793 5807 5806 5796 5784 5801 5808 5804 5798 5797 5795 5794 5793 5794 5796 5796 5795 5794 5792 5790 5789 5788 5787 5786 5785 5784 5782 5781 5779 5778 5777 5776 5775 5774 5773 5772 5770 5768 5767 5766 5764 5763 5760 5758 5755 5754
5778 5779 5781 5785 5799 5799 5790 5788 5799 5805 5803 5798 5796 5795 5793 5792 5794 5796 5797 5796 5794 5792 5791 5788 5787 5786 5785 5784 5782 5780 5778 5777 5776 5775 5774 5774 5772 5771 5770 5768 5766 5765 5762 5760 5759 5757 5755 5753 5752
5792 5785 5781 5790 5804 5795 5787 5787 5794 5801 5799 5796 5794 5794 5793 5793 5796 5797 5796 5796 5793 5791 5789 5787 5785 5784 5783 5781 5778 5775 5773 5773 5773 5773 5772 5772 5771 5770 5768 5766 5764 5762 5760 5758 5756 5754 5752 5750 5750
5792 5782 5781 5791 5802 5795 5785 5786 5795 5799 5799 5800 5797 5795 5795 5793 5793 5794 5794 5794 5792 5790 5788 5786 5784 5783 5782 5780 5778 5775 5773 5771 5771 5771 5770 5770 5769 5768 5767 5764 5762 5760 5758 5755 5754 5752 5749 5748 5748
5788 5783 5784 5784 5791 5791 5784 5778 5786 5796 5801 5802 5801 5799 5798 5796 5793 5793 5793 5792 5791 5789 5787 5786 5783 5782 5781 5780 5777 5775 5771 5769 5767 5766 5766 5767 5767 5765 5764 5762 5761 5758 5756 5754 5752 5751 5748 5745 5745
5781 5798 5796 5788 5775 5765 5774 5754 5777 5787 5790 5795 5797 5797 5797 5799 5797 5795 5793 5792 5791 5790 5788 5785 5783 5781 5780 5778 5775 5771 5767 5763 5763 5763 5763 5763 5763 5763 5762 5760 5758 5757 5755 5753 5751 5750 5748 5745 5742
5794 5802 5794 5786 5773 5761 5765 5755 5767 5782 5782 5791 5797 5799 5800 5800 5799 5797 5796 5794 5792 5790 5787 5784 5781 5779 5778 5776 5773 5770 5766 5764 5762 5762 5760 5759 5759 5759 5758 5757 5756 5754 5752 5750 5749 5747 5746 5744 5741
5804 5792 5781 5768 5759 5746 5757 5753 5759 5775 5787 5795 5800 5802 5802 5802 5801 5798 5796 5794 5791 5789 5786 5783 5779 5777 5776 5774 5771 5768 5764 5761 5759 5757 5756 5755 5755 5755 5754 5754 5752 5751 5749 5748 5747 5745 5743 5742 5741
5794 5768 5745 5742 5733 5739 5757 5754 5762 5792 5800 5802 5802 5803 5804 5803 5800 5797 5794 5791 5788 5786 5784 5781 5777 5774 5773 5771 5769 5766 5763 5760 5757 5755 5753 5752 5751 5750 5750 5750 5749 5747 5746 5745 5744 5743 5742 5740 5738
5784 5773 5745 5734 5729 5738 5752 5751 5776 5802 5806 5808 5807 5806 5804 5802 5800 5797 5794 5792 5788 5785 5782 5778 5775 5773 5771 5769 5766 5763 5761 5758 5755 5753 5751 5749 5748 5747 5747 5746 5745 5743 5742 5742 5741 5739 5738 5737 5736
5779 5770 5772 5746 5740 5735 5743 5761 5784 5801 5801 5803 5803 5802 5801 5801 5799 5797 5793 5790 5787 5784 5780 5777 5774 5770 5768 5766 5763 5760 5758 5755 5752 5751 5749 5747 5745 5744 5743 5742 5740 5739 5738 5737 5736 5735 5734 5733 5731
5791 5774 5755 5741 5728 5727 5741 5751 5762 5784 5791 5796 5797 5798 5800 5799 5797 5795 5793 5789 5786 5783 5779 5776 5772 5768 5765 5762 5759 5757 5754 5752 5749 5747 5744 5742 5741 5740 5739 5737 5736 5734 5734 5733 5732 5730 5730 5728 5727
5777 5769 5754 5740 5740 5727 5726 5747 5787 5789 5795 5795 5797 5798 5798 5797 5795 5793 5791 5788 5784 5780 5775 5771 5768 5764 5760 5757 5754 5752 5749 5747 5745 5742 5740 5738 5737 5736 5734 5732 5731 5729 5728 5727 5726 5725 5724 5723 5722
5785 5773 5758 5747 5739 5731 5730 5750 5798 5797 5799 5798 5796 5797 5796 5795 5793 5790 5787 5784 5779 5775 5771 5768 5764 5760 5757 5754 5750 5747 5745 5743 5740 5737 5736 5734 5732 5731 5729 5727 5725 5724 5723 5722 5720 5719 5718 5717 5716